Year,Month,Day,Hour,Minute,Value (Times are PST for temperature in C)
2008,09,29,00,00,11.50
2008,09,29,00,01,11.50
2008,09,29,00,02,11.40
2008,09,29,00,03,11.40
2008,09,29,00,04,11.40
2008,09,29,00,05,11.40
2008,09,29,00,06,11.40
2008,09,29,00,07,11.50
2008,09,29,00,08,11.50
2008,09,29,00,09,11.60
2008,09,29,00,10,11.60
2008,09,29,00,11,11.60
2008,09,29,00,12,11.70
2008,09,29,00,13,11.70
2008,09,29,00,14,11.70
2008,09,29,00,15,11.80
2008,09,29,00,16,11.80
2008,09,29,00,17,11.80
2008,09,29,00,18,11.80
2008,09,29,00,19,11.80
2008,09,29,00,20,11.90
2008,09,29,00,21,11.90
2008,09,29,00,22,11.90
2008,09,29,00,23,11.90
2008,09,29,00,24,11.90
2008,09,29,00,25,11.90
2008,09,29,00,26,11.90
2008,09,29,00,27,11.80
2008,09,29,00,28,11.80
2008,09,29,00,29,11.80
2008,09,29,00,30,11.70
2008,09,29,00,31,11.70
2008,09,29,00,32,11.70
2008,09,29,00,33,11.60
2008,09,29,00,34,11.60
2008,09,29,00,35,11.60
2008,09,29,00,36,11.60
2008,09,29,00,37,11.60
2008,09,29,00,38,11.60
2008,09,29,00,39,11.60
2008,09,29,00,40,11.70
2008,09,29,00,41,11.70
2008,09,29,00,42,11.70
2008,09,29,00,43,11.60
2008,09,29,00,44,11.50
2008,09,29,00,45,11.50
2008,09,29,00,46,11.40
2008,09,29,00,47,11.30
2008,09,29,00,48,11.20
2008,09,29,00,49,11.20
2008,09,29,00,50,11.10
2008,09,29,00,51,11.10
2008,09,29,00,52,11.10
2008,09,29,00,53,11.10
2008,09,29,00,54,11.00
2008,09,29,00,55,11.00
2008,09,29,00,56,10.90
2008,09,29,00,57,10.90
2008,09,29,00,58,10.90
2008,09,29,00,59,10.90
2008,09,29,01,00,11.00
2008,09,29,01,01,11.00
2008,09,29,01,02,11.10
2008,09,29,01,03,11.10
2008,09,29,01,04,11.10
2008,09,29,01,05,11.10
2008,09,29,01,06,11.00
2008,09,29,01,07,11.00
2008,09,29,01,08,11.00
2008,09,29,01,09,11.00
2008,09,29,01,10,11.10
2008,09,29,01,11,11.10
2008,09,29,01,12,11.10
2008,09,29,01,13,11.10
2008,09,29,01,14,11.10
2008,09,29,01,15,11.00
2008,09,29,01,16,11.10
2008,09,29,01,17,11.10
2008,09,29,01,18,11.10
2008,09,29,01,19,11.00
2008,09,29,01,20,11.00
2008,09,29,01,21,11.00
2008,09,29,01,22,11.00
2008,09,29,01,23,11.00
2008,09,29,01,24,10.90
2008,09,29,01,25,10.90
2008,09,29,01,26,10.90
2008,09,29,01,27,10.90
2008,09,29,01,28,10.90
2008,09,29,01,29,10.90
2008,09,29,01,30,10.90
2008,09,29,01,31,10.90
2008,09,29,01,32,10.80
2008,09,29,01,33,10.80
2008,09,29,01,34,10.80
2008,09,29,01,35,10.70
2008,09,29,01,36,10.70
2008,09,29,01,37,10.70
2008,09,29,01,38,10.60
2008,09,29,01,39,10.60
2008,09,29,01,40,10.50
2008,09,29,01,41,10.50
2008,09,29,01,42,10.50
2008,09,29,01,43,10.50
2008,09,29,01,44,10.50
2008,09,29,01,45,10.50
2008,09,29,01,46,10.50
2008,09,29,01,47,10.40
2008,09,29,01,48,10.40
2008,09,29,01,49,10.40
2008,09,29,01,50,10.30
2008,09,29,01,51,10.30
2008,09,29,01,52,10.30
2008,09,29,01,53,10.20
2008,09,29,01,54,10.20
2008,09,29,01,55,10.20
2008,09,29,01,56,10.20
2008,09,29,01,57,10.10
2008,09,29,01,58,10.10
2008,09,29,01,59,10.10
2008,09,29,02,00,10.10
2008,09,29,02,01,10.10
2008,09,29,02,02,10.10
2008,09,29,02,03,10.00
2008,09,29,02,04,10.00
2008,09,29,02,05,10.00
2008,09,29,02,06,10.00
2008,09,29,02,07,10.00
2008,09,29,02,08,10.00
2008,09,29,02,09,10.10
2008,09,29,02,10,10.10
2008,09,29,02,11,10.10
2008,09,29,02,12,10.20
2008,09,29,02,13,10.20
2008,09,29,02,14,10.20
2008,09,29,02,15,10.20
2008,09,29,02,16,10.20
2008,09,29,02,17,10.20
2008,09,29,02,18,10.20
2008,09,29,02,19,10.20
2008,09,29,02,20,10.20
2008,09,29,02,21,10.20
2008,09,29,02,22,10.20
2008,09,29,02,23,10.20
2008,09,29,02,24,10.20
2008,09,29,02,25,10.20
2008,09,29,02,26,10.10
2008,09,29,02,27,10.10
2008,09,29,02,28,10.10
2008,09,29,02,29,10.10
2008,09,29,02,30,10.00
2008,09,29,02,31,10.00
2008,09,29,02,32,9.90
2008,09,29,02,33,9.90
2008,09,29,02,34,9.90
2008,09,29,02,35,9.80
2008,09,29,02,36,9.80
2008,09,29,02,37,9.80
2008,09,29,02,38,9.80
2008,09,29,02,39,9.80
2008,09,29,02,40,9.80
2008,09,29,02,41,9.80
2008,09,29,02,42,9.90
2008,09,29,02,43,9.90
2008,09,29,02,44,9.90
2008,09,29,02,45,9.90
2008,09,29,02,46,10.00
2008,09,29,02,47,10.10
2008,09,29,02,48,10.10
2008,09,29,02,49,10.10
2008,09,29,02,50,10.10
2008,09,29,02,51,10.10
2008,09,29,02,52,10.10
2008,09,29,02,53,10.10
2008,09,29,02,54,10.10
2008,09,29,02,55,10.10
2008,09,29,02,56,10.20
2008,09,29,02,57,10.30
2008,09,29,02,58,10.30
2008,09,29,02,59,10.20
2008,09,29,03,00,10.20
2008,09,29,03,01,10.20
2008,09,29,03,02,10.20
2008,09,29,03,03,10.20
2008,09,29,03,04,10.20
2008,09,29,03,05,10.20
2008,09,29,03,06,10.10
2008,09,29,03,07,10.10
2008,09,29,03,08,10.10
2008,09,29,03,09,10.10
2008,09,29,03,10,10.10
2008,09,29,03,11,10.10
2008,09,29,03,12,10.10
2008,09,29,03,13,10.10
2008,09,29,03,14,10.00
2008,09,29,03,15,10.00
2008,09,29,03,16,10.10
2008,09,29,03,17,10.10
2008,09,29,03,18,10.10
2008,09,29,03,19,10.10
2008,09,29,03,20,10.10
2008,09,29,03,21,10.10
2008,09,29,03,22,10.10
2008,09,29,03,23,10.20
2008,09,29,03,24,10.30
2008,09,29,03,25,10.30
2008,09,29,03,26,10.30
2008,09,29,03,27,10.30
2008,09,29,03,28,10.30
2008,09,29,03,29,10.30
2008,09,29,03,30,10.20
2008,09,29,03,31,10.20
2008,09,29,03,32,10.20
2008,09,29,03,33,10.20
2008,09,29,03,34,10.20
2008,09,29,03,35,10.20
2008,09,29,03,36,10.10
2008,09,29,03,37,10.10
2008,09,29,03,38,10.10
2008,09,29,03,39,10.10
2008,09,29,03,40,10.10
2008,09,29,03,41,10.00
2008,09,29,03,42,10.00
2008,09,29,03,43,9.90
2008,09,29,03,44,9.90
2008,09,29,03,45,9.80
2008,09,29,03,46,9.80
2008,09,29,03,47,9.80
2008,09,29,03,48,9.80
2008,09,29,03,49,9.80
2008,09,29,03,50,9.90
2008,09,29,03,51,9.90
2008,09,29,03,52,9.90
2008,09,29,03,53,9.90
2008,09,29,03,54,9.90
2008,09,29,03,55,9.90
2008,09,29,03,56,9.90
2008,09,29,03,57,9.90
2008,09,29,03,58,10.00
2008,09,29,03,59,10.00
2008,09,29,04,00,10.00
2008,09,29,04,01,9.90
2008,09,29,04,02,9.90
2008,09,29,04,03,9.90
2008,09,29,04,04,9.90
2008,09,29,04,05,9.90
2008,09,29,04,06,9.90
2008,09,29,04,07,9.90
2008,09,29,04,08,9.90
2008,09,29,04,09,9.90
2008,09,29,04,10,9.80
2008,09,29,04,11,9.80
2008,09,29,04,12,9.80
2008,09,29,04,13,9.80
2008,09,29,04,14,9.70
2008,09,29,04,15,9.70
2008,09,29,04,16,9.70
2008,09,29,04,17,9.70
2008,09,29,04,18,9.70
2008,09,29,04,19,9.70
2008,09,29,04,20,9.70
2008,09,29,04,21,9.80
2008,09,29,04,22,9.80
2008,09,29,04,23,9.90
2008,09,29,04,24,9.90
2008,09,29,04,25,9.90
2008,09,29,04,26,9.90
2008,09,29,04,27,9.80
2008,09,29,04,28,9.80
2008,09,29,04,29,9.70
2008,09,29,04,30,9.70
2008,09,29,04,31,9.70
2008,09,29,04,32,9.70
2008,09,29,04,33,9.70
2008,09,29,04,34,9.70
2008,09,29,04,35,9.60
2008,09,29,04,36,9.60
2008,09,29,04,37,9.60
2008,09,29,04,38,9.60
2008,09,29,04,39,9.50
2008,09,29,04,40,9.50
2008,09,29,04,41,9.40
2008,09,29,04,42,9.40
2008,09,29,04,43,9.30
2008,09,29,04,44,9.30
2008,09,29,04,45,9.30
2008,09,29,04,46,9.30
2008,09,29,04,47,9.30
2008,09,29,04,48,9.30
2008,09,29,04,49,9.20
2008,09,29,04,50,9.20
2008,09,29,04,51,9.20
2008,09,29,04,52,9.20
2008,09,29,04,53,9.20
2008,09,29,04,54,9.10
2008,09,29,04,55,9.10
2008,09,29,04,56,9.10
2008,09,29,04,57,9.10
2008,09,29,04,58,9.00
2008,09,29,04,59,9.00
2008,09,29,05,00,9.00
2008,09,29,05,01,8.90
2008,09,29,05,02,8.90
2008,09,29,05,03,8.90
2008,09,29,05,04,8.90
2008,09,29,05,05,8.90
2008,09,29,05,06,8.90
2008,09,29,05,07,8.90
2008,09,29,05,08,8.90
2008,09,29,05,09,8.90
2008,09,29,05,10,8.90
2008,09,29,05,11,8.90
2008,09,29,05,12,8.90
2008,09,29,05,13,8.90
2008,09,29,05,14,9.00
2008,09,29,05,15,9.00
2008,09,29,05,16,9.00
2008,09,29,05,17,9.00
2008,09,29,05,18,9.00
2008,09,29,05,19,9.00
2008,09,29,05,20,9.00
2008,09,29,05,21,9.10
2008,09,29,05,22,9.10
2008,09,29,05,23,9.10
2008,09,29,05,24,9.10
2008,09,29,05,25,9.00
2008,09,29,05,26,9.00
2008,09,29,05,27,9.00
2008,09,29,05,28,8.90
2008,09,29,05,29,8.90
2008,09,29,05,30,8.90
2008,09,29,05,31,8.80
2008,09,29,05,32,8.80
2008,09,29,05,33,8.80
2008,09,29,05,34,8.80
2008,09,29,05,35,8.80
2008,09,29,05,36,8.80
2008,09,29,05,37,8.80
2008,09,29,05,38,8.80
2008,09,29,05,39,8.80
2008,09,29,05,40,8.80
2008,09,29,05,41,8.80
2008,09,29,05,42,8.80
2008,09,29,05,43,8.80
2008,09,29,05,44,8.70
2008,09,29,05,45,8.70
2008,09,29,05,46,8.70
2008,09,29,05,47,8.60
2008,09,29,05,48,8.60
2008,09,29,05,49,8.60
2008,09,29,05,50,8.50
2008,09,29,05,51,8.50
2008,09,29,05,52,8.50
2008,09,29,05,53,8.50
2008,09,29,05,54,8.40
2008,09,29,05,55,8.40
2008,09,29,05,56,8.40
2008,09,29,05,57,8.40
2008,09,29,05,58,8.30
2008,09,29,05,59,8.30
2008,09,29,06,00,8.30
2008,09,29,06,01,8.30
2008,09,29,06,02,8.30
2008,09,29,06,03,8.30
2008,09,29,06,04,8.40
2008,09,29,06,05,8.40
2008,09,29,06,06,8.40
2008,09,29,06,07,8.40
2008,09,29,06,08,8.50
2008,09,29,06,09,8.50
2008,09,29,06,10,8.50
2008,09,29,06,11,8.50
2008,09,29,06,12,8.50
2008,09,29,06,13,8.50
2008,09,29,06,14,8.40
2008,09,29,06,15,8.40
2008,09,29,06,16,8.40
2008,09,29,06,17,8.30
2008,09,29,06,18,8.30
2008,09,29,06,19,8.30
2008,09,29,06,20,8.20
2008,09,29,06,21,8.20
2008,09,29,06,22,8.20
2008,09,29,06,23,8.10
2008,09,29,06,24,8.10
2008,09,29,06,25,8.10
2008,09,29,06,26,8.10
2008,09,29,06,27,8.10
2008,09,29,06,28,8.10
2008,09,29,06,29,8.10
2008,09,29,06,30,8.10
2008,09,29,06,31,8.10
2008,09,29,06,32,8.20
2008,09,29,06,33,8.10
2008,09,29,06,34,8.10
2008,09,29,06,35,8.20
2008,09,29,06,36,8.30
2008,09,29,06,37,8.30
2008,09,29,06,38,8.40
2008,09,29,06,39,8.40
2008,09,29,06,40,8.40
2008,09,29,06,41,8.40
2008,09,29,06,42,8.50
2008,09,29,06,43,8.50
2008,09,29,06,44,8.50
2008,09,29,06,45,8.60
2008,09,29,06,46,8.60
2008,09,29,06,47,8.60
2008,09,29,06,48,8.50
2008,09,29,06,49,8.50
2008,09,29,06,50,8.50
2008,09,29,06,51,8.50
2008,09,29,06,52,8.50
2008,09,29,06,53,8.40
2008,09,29,06,54,8.40
2008,09,29,06,55,8.50
2008,09,29,06,56,8.50
2008,09,29,06,57,8.60
2008,09,29,06,58,8.60
2008,09,29,06,59,8.60
2008,09,29,07,00,8.70
2008,09,29,07,01,8.80
2008,09,29,07,02,8.90
2008,09,29,07,03,8.90
2008,09,29,07,04,8.90
2008,09,29,07,05,8.90
2008,09,29,07,06,8.90
2008,09,29,07,07,8.90
2008,09,29,07,08,9.00
2008,09,29,07,09,9.00
2008,09,29,07,10,9.00
2008,09,29,07,11,9.00
2008,09,29,07,12,8.90
2008,09,29,07,13,8.90
2008,09,29,07,14,8.90
2008,09,29,07,15,8.90
2008,09,29,07,16,8.90
2008,09,29,07,17,8.80
2008,09,29,07,18,8.80
2008,09,29,07,19,8.80
2008,09,29,07,20,8.70
2008,09,29,07,21,8.70
2008,09,29,07,22,8.70
2008,09,29,07,23,8.70
2008,09,29,07,24,8.70
2008,09,29,07,25,8.70
2008,09,29,07,26,8.70
2008,09,29,07,27,8.70
2008,09,29,07,28,8.70
2008,09,29,07,29,8.60
2008,09,29,07,30,8.60
2008,09,29,07,31,8.60
2008,09,29,07,32,8.60
2008,09,29,07,33,8.60
2008,09,29,07,34,8.60
2008,09,29,07,35,8.60
2008,09,29,07,36,8.60
2008,09,29,07,37,8.60
2008,09,29,07,38,8.60
2008,09,29,07,39,8.60
2008,09,29,07,40,8.60
2008,09,29,07,41,8.60
2008,09,29,07,42,8.50
2008,09,29,07,43,8.50
2008,09,29,07,44,8.60
2008,09,29,07,45,8.60
2008,09,29,07,46,8.60
2008,09,29,07,47,8.60
2008,09,29,07,48,8.60
2008,09,29,07,49,8.60
2008,09,29,07,50,8.70
2008,09,29,07,51,8.70
2008,09,29,07,52,8.80
2008,09,29,07,53,8.80
2008,09,29,07,54,8.80
2008,09,29,07,55,8.80
2008,09,29,07,56,8.80
2008,09,29,07,57,8.80
2008,09,29,07,58,8.80
2008,09,29,07,59,8.80
2008,09,29,08,00,8.90
2008,09,29,08,01,8.90
2008,09,29,08,02,8.90
2008,09,29,08,03,9.00
2008,09,29,08,04,9.00
2008,09,29,08,05,9.00
2008,09,29,08,06,9.00
2008,09,29,08,07,9.00
2008,09,29,08,08,9.10
2008,09,29,08,09,9.10
2008,09,29,08,10,9.10
2008,09,29,08,11,9.20
2008,09,29,08,12,9.30
2008,09,29,08,13,9.50
2008,09,29,08,14,9.50
2008,09,29,08,15,9.60
2008,09,29,08,16,9.60
2008,09,29,08,17,9.70
2008,09,29,08,18,9.80
2008,09,29,08,19,9.80
2008,09,29,08,20,10.00
2008,09,29,08,21,10.00
2008,09,29,08,22,10.10
2008,09,29,08,23,10.20
2008,09,29,08,24,10.30
2008,09,29,08,25,10.40
2008,09,29,08,26,10.40
2008,09,29,08,27,10.50
2008,09,29,08,28,10.50
2008,09,29,08,29,10.50
2008,09,29,08,30,10.60
2008,09,29,08,31,10.60
2008,09,29,08,32,10.60
2008,09,29,08,33,10.60
2008,09,29,08,34,10.60
2008,09,29,08,35,10.60
2008,09,29,08,36,10.60
2008,09,29,08,37,10.70
2008,09,29,08,38,10.70
2008,09,29,08,39,10.70
2008,09,29,08,40,10.70
2008,09,29,08,41,10.80
2008,09,29,08,42,10.80
2008,09,29,08,43,10.80
2008,09,29,08,44,10.80
2008,09,29,08,45,10.80
2008,09,29,08,46,10.90
2008,09,29,08,47,10.90
2008,09,29,08,48,11.00
2008,09,29,08,49,11.00
2008,09,29,08,50,11.10
2008,09,29,08,51,11.10
2008,09,29,08,52,11.20
2008,09,29,08,53,11.20
2008,09,29,08,54,11.20
2008,09,29,08,55,11.30
2008,09,29,08,56,11.30
2008,09,29,08,57,11.30
2008,09,29,08,58,11.40
2008,09,29,08,59,11.40
2008,09,29,09,00,11.50
2008,09,29,09,01,11.60
2008,09,29,09,02,11.70
2008,09,29,09,03,11.80
2008,09,29,09,04,11.90
2008,09,29,09,05,12.00
2008,09,29,09,06,12.10
2008,09,29,09,07,12.20
2008,09,29,09,08,12.30
2008,09,29,09,09,12.30
2008,09,29,09,10,12.40
2008,09,29,09,11,12.50
2008,09,29,09,12,12.50
2008,09,29,09,13,12.60
2008,09,29,09,14,12.70
2008,09,29,09,15,12.80
2008,09,29,09,16,12.90
2008,09,29,09,17,13.00
2008,09,29,09,18,13.00
2008,09,29,09,19,13.10
2008,09,29,09,20,13.20
2008,09,29,09,21,13.20
2008,09,29,09,22,13.20
2008,09,29,09,23,13.30
2008,09,29,09,24,13.30
2008,09,29,09,25,13.30
2008,09,29,09,26,13.40
2008,09,29,09,27,13.40
2008,09,29,09,28,13.50
2008,09,29,09,29,13.50
2008,09,29,09,30,13.50
2008,09,29,09,31,13.50
2008,09,29,09,32,13.50
2008,09,29,09,33,13.60
2008,09,29,09,34,13.60
2008,09,29,09,35,13.60
2008,09,29,09,36,13.60
2008,09,29,09,37,13.60
2008,09,29,09,38,13.50
2008,09,29,09,39,13.50
2008,09,29,09,40,13.40
2008,09,29,09,41,13.30
2008,09,29,09,42,13.30
2008,09,29,09,43,13.20
2008,09,29,09,44,13.10
2008,09,29,09,45,13.10
2008,09,29,09,46,13.10
2008,09,29,09,47,13.00
2008,09,29,09,48,13.00
2008,09,29,09,49,13.00
2008,09,29,09,50,13.00
2008,09,29,09,51,13.00
2008,09,29,09,52,13.00
2008,09,29,09,53,13.10
2008,09,29,09,54,13.10
2008,09,29,09,55,13.10
2008,09,29,09,56,13.20
2008,09,29,09,57,13.30
2008,09,29,09,58,13.30
2008,09,29,09,59,13.40
2008,09,29,10,00,13.50
2008,09,29,10,01,13.60
2008,09,29,10,02,13.60
2008,09,29,10,03,13.70
2008,09,29,10,04,13.80
2008,09,29,10,05,13.80
2008,09,29,10,06,13.90
2008,09,29,10,07,13.90
2008,09,29,10,08,13.90
2008,09,29,10,09,14.00
2008,09,29,10,10,14.00
2008,09,29,10,11,14.10
2008,09,29,10,12,14.10
2008,09,29,10,13,14.20
2008,09,29,10,14,14.20
2008,09,29,10,15,14.30
2008,09,29,10,16,14.30
2008,09,29,10,17,14.30
2008,09,29,10,18,14.30
2008,09,29,10,19,14.30
2008,09,29,10,20,14.30
2008,09,29,10,21,14.30
2008,09,29,10,22,14.30
2008,09,29,10,23,14.30
2008,09,29,10,24,14.30
2008,09,29,10,25,14.40
2008,09,29,10,26,14.40
2008,09,29,10,27,14.40
2008,09,29,10,28,14.40
2008,09,29,10,29,14.50
2008,09,29,10,30,14.50
2008,09,29,10,31,14.60
2008,09,29,10,32,14.60
2008,09,29,10,33,14.70
2008,09,29,10,34,14.80
2008,09,29,10,35,14.80
2008,09,29,10,36,14.80
2008,09,29,10,37,14.90
2008,09,29,10,38,15.00
2008,09,29,10,39,15.00
2008,09,29,10,40,15.00
2008,09,29,10,41,15.00
2008,09,29,10,42,15.10
2008,09,29,10,43,15.20
2008,09,29,10,44,15.30
2008,09,29,10,45,15.40
2008,09,29,10,46,15.40
2008,09,29,10,47,15.50
2008,09,29,10,48,15.60
2008,09,29,10,49,15.70
2008,09,29,10,50,15.80
2008,09,29,10,51,15.80
2008,09,29,10,52,15.90
2008,09,29,10,53,15.90
2008,09,29,10,54,16.00
2008,09,29,10,55,16.00
2008,09,29,10,56,15.90
2008,09,29,10,57,15.90
2008,09,29,10,58,15.90
2008,09,29,10,59,15.90
2008,09,29,11,00,15.90
2008,09,29,11,01,16.00
2008,09,29,11,02,16.00
2008,09,29,11,03,16.00
2008,09,29,11,04,16.00
2008,09,29,11,05,16.00
2008,09,29,11,06,16.00
2008,09,29,11,07,16.00
2008,09,29,11,08,16.00
2008,09,29,11,09,15.90
2008,09,29,11,10,15.90
2008,09,29,11,11,15.90
2008,09,29,11,12,15.90
2008,09,29,11,13,15.90
2008,09,29,11,14,15.80
2008,09,29,11,15,15.80
2008,09,29,11,16,15.70
2008,09,29,11,17,15.70
2008,09,29,11,18,15.70
2008,09,29,11,19,15.60
2008,09,29,11,20,15.60
2008,09,29,11,21,15.60
2008,09,29,11,22,15.60
2008,09,29,11,23,15.70
2008,09,29,11,24,15.70
2008,09,29,11,25,15.70
2008,09,29,11,26,15.80
2008,09,29,11,27,15.80
2008,09,29,11,28,15.80
2008,09,29,11,29,15.90
2008,09,29,11,30,15.90
2008,09,29,11,31,15.90
2008,09,29,11,32,16.00
2008,09,29,11,33,16.00
2008,09,29,11,34,16.10
2008,09,29,11,35,16.10
2008,09,29,11,36,16.20
2008,09,29,11,37,16.20
2008,09,29,11,38,16.30
2008,09,29,11,39,16.40
2008,09,29,11,40,16.40
2008,09,29,11,41,16.50
2008,09,29,11,42,16.60
2008,09,29,11,43,16.70
2008,09,29,11,44,16.80
2008,09,29,11,45,16.80
2008,09,29,11,46,16.90
2008,09,29,11,47,17.00
2008,09,29,11,48,17.00
2008,09,29,11,49,17.00
2008,09,29,11,50,17.00
2008,09,29,11,51,17.00
2008,09,29,11,52,17.00
2008,09,29,11,53,17.10
2008,09,29,11,54,17.10
2008,09,29,11,55,17.10
2008,09,29,11,56,17.10
2008,09,29,11,57,17.00
2008,09,29,11,58,17.00
2008,09,29,11,59,16.90
2008,09,29,12,00,16.90
2008,09,29,12,01,16.90
2008,09,29,12,02,16.80
2008,09,29,12,03,16.80
2008,09,29,12,04,16.80
2008,09,29,12,05,16.80
2008,09,29,12,06,16.80
2008,09,29,12,07,16.80
2008,09,29,12,08,16.80
2008,09,29,12,09,16.80
2008,09,29,12,10,16.90
2008,09,29,12,11,16.90
2008,09,29,12,12,17.00
2008,09,29,12,13,17.00
2008,09,29,12,14,17.10
2008,09,29,12,15,17.10
2008,09,29,12,16,17.10
2008,09,29,12,17,17.10
2008,09,29,12,18,17.10
2008,09,29,12,19,17.20
2008,09,29,12,20,17.20
2008,09,29,12,21,17.20
2008,09,29,12,22,17.20
2008,09,29,12,23,17.30
2008,09,29,12,24,17.30
2008,09,29,12,25,17.30
2008,09,29,12,26,17.30
2008,09,29,12,27,17.30
2008,09,29,12,28,17.30
2008,09,29,12,29,17.30
2008,09,29,12,30,17.30
2008,09,29,12,31,17.30
2008,09,29,12,32,17.30
2008,09,29,12,33,17.30
2008,09,29,12,34,17.30
2008,09,29,12,35,17.30
2008,09,29,12,36,17.30
2008,09,29,12,37,17.30
2008,09,29,12,38,17.40
2008,09,29,12,39,17.50
2008,09,29,12,40,17.60
2008,09,29,12,41,17.60
2008,09,29,12,42,17.70
2008,09,29,12,43,17.70
2008,09,29,12,44,17.80
2008,09,29,12,45,17.90
2008,09,29,12,46,17.90
2008,09,29,12,47,18.00
2008,09,29,12,48,18.10
2008,09,29,12,49,18.10
2008,09,29,12,50,18.20
2008,09,29,12,51,18.20
2008,09,29,12,52,18.30
2008,09,29,12,53,18.30
2008,09,29,12,54,18.30
2008,09,29,12,55,18.30
2008,09,29,12,56,18.30
2008,09,29,12,57,18.20
2008,09,29,12,58,18.20
2008,09,29,12,59,18.10
2008,09,29,13,00,18.10
2008,09,29,13,01,18.10
2008,09,29,13,02,18.10
2008,09,29,13,03,18.10
2008,09,29,13,04,18.00
2008,09,29,13,05,18.00
2008,09,29,13,06,18.00
2008,09,29,13,07,18.10
2008,09,29,13,08,18.10
2008,09,29,13,09,18.10
2008,09,29,13,10,18.20
2008,09,29,13,11,18.30
2008,09,29,13,12,18.40
2008,09,29,13,13,18.50
2008,09,29,13,14,18.50
2008,09,29,13,15,18.50
2008,09,29,13,16,18.60
2008,09,29,13,17,18.60
2008,09,29,13,18,18.60
2008,09,29,13,19,18.60
2008,09,29,13,20,18.60
2008,09,29,13,21,18.60
2008,09,29,13,22,18.70
2008,09,29,13,23,18.70
2008,09,29,13,24,18.70
2008,09,29,13,25,18.70
2008,09,29,13,26,18.80
2008,09,29,13,27,18.80
2008,09,29,13,28,18.80
2008,09,29,13,29,18.80
2008,09,29,13,30,18.90
2008,09,29,13,31,18.90
2008,09,29,13,32,19.00
2008,09,29,13,33,19.00
2008,09,29,13,34,19.10
2008,09,29,13,35,19.10
2008,09,29,13,36,19.10
2008,09,29,13,37,19.10
2008,09,29,13,38,19.10
2008,09,29,13,39,19.10
2008,09,29,13,40,19.20
2008,09,29,13,41,19.10
2008,09,29,13,42,19.10
2008,09,29,13,43,19.10
2008,09,29,13,44,19.10
2008,09,29,13,45,19.10
2008,09,29,13,46,19.10
2008,09,29,13,47,19.10
2008,09,29,13,48,19.20
2008,09,29,13,49,19.20
2008,09,29,13,50,19.20
2008,09,29,13,51,19.30
2008,09,29,13,52,19.30
2008,09,29,13,53,19.30
2008,09,29,13,54,19.30
2008,09,29,13,55,19.40
2008,09,29,13,56,19.40
2008,09,29,13,57,19.40
2008,09,29,13,58,19.50
2008,09,29,13,59,19.50
2008,09,29,14,00,19.50
2008,09,29,14,01,19.50
2008,09,29,14,02,19.50
2008,09,29,14,03,19.50
2008,09,29,14,04,19.60
2008,09,29,14,05,19.60
2008,09,29,14,06,19.60
2008,09,29,14,07,19.70
2008,09,29,14,08,19.70
2008,09,29,14,09,19.70
2008,09,29,14,10,19.70
2008,09,29,14,11,19.70
2008,09,29,14,12,19.80
2008,09,29,14,13,19.80
2008,09,29,14,14,19.90
2008,09,29,14,15,19.90
2008,09,29,14,16,19.90
2008,09,29,14,17,19.90
2008,09,29,14,18,19.90
2008,09,29,14,19,19.90
2008,09,29,14,20,19.90
2008,09,29,14,21,19.90
2008,09,29,14,22,19.90
2008,09,29,14,23,19.90
2008,09,29,14,24,19.90
2008,09,29,14,25,20.00
2008,09,29,14,26,20.00
2008,09,29,14,27,20.10
2008,09,29,14,28,20.10
2008,09,29,14,29,20.10
2008,09,29,14,30,20.10
2008,09,29,14,31,20.00
2008,09,29,14,32,20.00
2008,09,29,14,33,19.90
2008,09,29,14,34,19.90
2008,09,29,14,35,19.90
2008,09,29,14,36,19.90
2008,09,29,14,37,19.90
2008,09,29,14,38,19.90
2008,09,29,14,39,20.00
2008,09,29,14,40,20.00
2008,09,29,14,41,20.00
2008,09,29,14,42,20.00
2008,09,29,14,43,20.00
2008,09,29,14,44,20.00
2008,09,29,14,45,20.00
2008,09,29,14,46,20.00
2008,09,29,14,47,20.00
2008,09,29,14,48,20.10
2008,09,29,14,49,20.10
2008,09,29,14,50,20.20
2008,09,29,14,51,20.20
2008,09,29,14,52,20.20
2008,09,29,14,53,20.20
2008,09,29,14,54,20.20
2008,09,29,14,55,20.20
2008,09,29,14,56,20.20
2008,09,29,14,57,20.20
2008,09,29,14,58,20.30
2008,09,29,14,59,20.30
2008,09,29,15,00,20.30
2008,09,29,15,01,20.20
2008,09,29,15,02,20.20
2008,09,29,15,03,20.20
2008,09,29,15,04,20.20
2008,09,29,15,05,20.20
2008,09,29,15,06,20.30
2008,09,29,15,07,20.30
2008,09,29,15,08,20.30
2008,09,29,15,09,20.30
2008,09,29,15,10,20.40
2008,09,29,15,11,20.40
2008,09,29,15,12,20.50
2008,09,29,15,13,20.50
2008,09,29,15,14,20.50
2008,09,29,15,15,20.60
2008,09,29,15,16,20.70
2008,09,29,15,17,20.70
2008,09,29,15,18,20.80
2008,09,29,15,19,20.80
2008,09,29,15,20,20.80
2008,09,29,15,21,20.80
2008,09,29,15,22,20.90
2008,09,29,15,23,21.00
2008,09,29,15,24,21.10
2008,09,29,15,25,21.10
2008,09,29,15,26,21.10
2008,09,29,15,27,21.20
2008,09,29,15,28,21.20
2008,09,29,15,29,21.20
2008,09,29,15,30,21.20
2008,09,29,15,31,21.20
2008,09,29,15,32,21.20
2008,09,29,15,33,21.20
2008,09,29,15,34,21.20
2008,09,29,15,35,21.20
2008,09,29,15,36,21.20
2008,09,29,15,37,21.10
2008,09,29,15,38,21.10
2008,09,29,15,39,21.10
2008,09,29,15,40,21.00
2008,09,29,15,41,21.00
2008,09,29,15,42,21.00
2008,09,29,15,43,20.90
2008,09,29,15,44,20.90
2008,09,29,15,45,20.90
2008,09,29,15,46,20.80
2008,09,29,15,47,20.80
2008,09,29,15,48,20.80
2008,09,29,15,49,20.80
2008,09,29,15,50,20.80
2008,09,29,15,51,20.80
2008,09,29,15,52,20.80
2008,09,29,15,53,20.70
2008,09,29,15,54,20.70
2008,09,29,15,55,20.70
2008,09,29,15,56,20.60
2008,09,29,15,57,20.60
2008,09,29,15,58,20.60
2008,09,29,15,59,20.60
2008,09,29,16,00,20.60
2008,09,29,16,01,20.70
2008,09,29,16,02,20.70
2008,09,29,16,03,20.60
2008,09,29,16,04,20.60
2008,09,29,16,05,20.60
2008,09,29,16,06,20.70
2008,09,29,16,07,20.60
2008,09,29,16,08,20.60
2008,09,29,16,09,20.60
2008,09,29,16,10,20.60
2008,09,29,16,11,20.60
2008,09,29,16,12,20.60
2008,09,29,16,13,20.60
2008,09,29,16,14,20.60
2008,09,29,16,15,20.60
2008,09,29,16,16,20.60
2008,09,29,16,17,20.70
2008,09,29,16,18,20.70
2008,09,29,16,19,20.80
2008,09,29,16,20,20.80
2008,09,29,16,21,20.90
2008,09,29,16,22,20.90
2008,09,29,16,23,20.90
2008,09,29,16,24,20.90
2008,09,29,16,25,20.90
2008,09,29,16,26,20.90
2008,09,29,16,27,20.90
2008,09,29,16,28,21.00
2008,09,29,16,29,21.00
2008,09,29,16,30,21.00
2008,09,29,16,31,21.10
2008,09,29,16,32,21.10
2008,09,29,16,33,21.10
2008,09,29,16,34,21.20
2008,09,29,16,35,21.20
2008,09,29,16,36,21.20
2008,09,29,16,37,21.20
2008,09,29,16,38,21.20
2008,09,29,16,39,21.30
2008,09,29,16,40,21.30
2008,09,29,16,41,21.30
2008,09,29,16,42,21.30
2008,09,29,16,43,21.30
2008,09,29,16,44,21.30
2008,09,29,16,45,21.30
2008,09,29,16,46,21.20
2008,09,29,16,47,21.20
2008,09,29,16,48,21.20
2008,09,29,16,49,21.20
2008,09,29,16,50,21.20
2008,09,29,16,51,21.10
2008,09,29,16,52,21.10
2008,09,29,16,53,21.10
2008,09,29,16,54,21.20
2008,09,29,16,55,21.20
2008,09,29,16,56,21.30
2008,09,29,16,57,21.40
2008,09,29,16,58,21.40
2008,09,29,16,59,21.50
2008,09,29,17,00,21.50
2008,09,29,17,01,21.50
2008,09,29,17,02,21.50
2008,09,29,17,03,21.40
2008,09,29,17,04,21.40
2008,09,29,17,05,21.40
2008,09,29,17,06,21.30
2008,09,29,17,07,21.30
2008,09,29,17,08,21.20
2008,09,29,17,09,21.10
2008,09,29,17,10,21.10
2008,09,29,17,11,21.00
2008,09,29,17,12,21.00
2008,09,29,17,13,20.90
2008,09,29,17,14,20.90
2008,09,29,17,15,20.80
2008,09,29,17,16,20.80
2008,09,29,17,17,20.70
2008,09,29,17,18,20.60
2008,09,29,17,19,20.60
2008,09,29,17,20,20.60
2008,09,29,17,21,20.60
2008,09,29,17,22,20.50
2008,09,29,17,23,20.50
2008,09,29,17,24,20.40
2008,09,29,17,25,20.40
2008,09,29,17,26,20.30
2008,09,29,17,27,20.30
2008,09,29,17,28,20.30
2008,09,29,17,29,20.30
2008,09,29,17,30,20.20
2008,09,29,17,31,20.20